Regional Weather Roundup
Issued by NWS Newport/Morehead, NC

Current Version | Previous Version | Graphics & Text | Print | Product List | Glossary Off
Versions: 1 2 3 4 5 6 7 8 9 10 11 12 13 14 15 16 17 18 19 20 21 22 23 24 25 26 27 28 29 30 31 32 33 34 35 36 37 38 39 40 41 42 43 44 45 46 47 48 49 50

000
ASUS42 KMHX 281913
RWRMHX
WEATHER ROUNDUP FOR EASTERN NORTH CAROLINA
NATIONAL WEATHER SERVICE NEWPORT/MOREHEAD CITY NC
300 PM EDT THU JUL 28 2016

NOTE: "FAIR" INDICATES FEW OR NO CLOUDS BELOW 12,000 FEET
WITH NO SIGNIFICANT WEATHER AND/OR OBSTRUCTIONS TO VISIBILITY

NCZ015>017-031-032-045>047-102-103-282000-
NORTH COAST

CITY           SKY/WX    TMP DP  RH WIND       PRES   REMARKS
EDENTON        SUNNY     96  77  53 S7        29.86F HX 110
ELIZABETH CITY SUNNY     95  77  55 SW12      29.86F HX 109
KITTY HAWK     CLEAR     99  77  50 SE9       29.86F HX 115
MANTEO           N/A     89  82  78 S14       29.87F HX 109

$$

NCZ045>047-081-094-103-104-282000-
CENTRAL COAST

CITY           SKY/WX    TMP DP  RH WIND       PRES   REMARKS
FRISCO         SUNNY     86  80  82 SW8       29.90F HX 101

$$

NCZ095-097-098-100-101-282000-
SOUTHERN COAST

CITY           SKY/WX    TMP DP  RH WIND       PRES   REMARKS
BEAUFORT       NOT AVBL
CEDAR ISLAND   NOT AVBL
JACKSONVILLE   MOSUNNY   97  70  41 W12G17    29.88F HX 103
PINEY ISLAND   NOT AVBL
WILMINGTON     SUNNY     97  70  41 SW15      29.90F HX 103


$$

NCZ011>013-027>030-043-044-078>080-089-090>093-098-282000-
COASTAL PLAIN

CITY           SKY/WX    TMP DP  RH WIND       PRES   REMARKS
AHOSKIE        SUNNY     92  80  66 SW3       29.86F HX 110
CLINTON        SUNNY     96  73  47 SW8       29.89F HX 106
ELIZABETHTOWN  SUNNY     96  69  41 W12G18    29.91F HX 102
GOLDSBORO      SUNNY    100  66  32 W15G21    29.86F HX 104
GREENVILLE     MOSUNNY   97  75  49 SW8G17    29.89F HX 109
HAVELOCK       MOSUNNY   96  75  50 SW12      29.89F HX 108
KENANSVILLE    NOT AVBL
KINSTON        MOSUNNY   99  68  36 S10G16    29.88F HX 104
NEW BERN       MOSUNNY   95  75  52 SW9       29.89F HX 107
RICHLANDS      SUNNY    100  73  41 S13       29.89F HX 110
ROCKY MOUNT    MOSUNNY   96  75  50 S10       29.87F HX 108
WASHINGTON     SUNNY     94  76  56 SW9G16    29.87F HX 106
WHITEVILLE     SUNNY     95  71  45 SW9       29.92F HX 102

$$

AMZ130-135-150-152-154-156-158-170-250-252-270-ANZ085-086-088-633-658-670-282000-
MARINE OBSERVATIONS

STATION/POSITION TIME  TEMP    WIND        PRES    WAVE   SWELL
                       AIR SEA DIR/SP/G            HT/PER HT/PER
                 (UTC) (F)     (DEG/KT/KT) (MB)    (FT/S) (FT/S)
CHESAPEAKE LIGHT NOT AVBL
64 E VA BEACH    1850   83 84  190/ 10/ 12 1011.4    2/ 8   2/ 8
DUCK             1800   83 75  130/  7/  7 1011.5
2 E DUCK         1811      81                N/A     1/ 8
OREGON INLET     1800   86 84  180/ 12/ 14 1012.2
13E OREGON INLT  1800      84                N/A     2/ 8   2/ 8
HATTERAS CG      1800   86 83  220/  9/ 12 1012.7
DIAMOND BUOY     1850   85 86  220/ 16/ 17 1012.3    2/ 6   2/ 8
CAPE LOOKOUT     1900   89     210/  9/ 11 1012.3
BEAUFORT LAB     1800   89 83  220/  8/ 12 1012.5
30 SE NEW RVR IN 1808   85 85  220/ 12/ 16 1013.7
30 SE NEW RVR IN 1825      85                N/A     3/ 6
27 SE WRIGHTSVLE 1808   86 85  220/ 12/ 17 1014.2
5 SE WRIGHTSVLE  1808   85 81  210/ 12/ 16 1014.2
225 S CAPE HAT   1850   84 85  270/  8/ 10 1015.7    3/ 6   3/ 6
41 SE CHARLESTON 1850   86 87  210/ 10/ 10 1014.9    3/ 6   3/ 6

$$




USA.gov is the U.S. government's official web portal to all federal, state and local government web resources and services.